Location: *
(40.7873°S, 98.7174°E)
Time: 12:48:11
(UTC+00:00)

Cosmos 192 - Pass Details

Date: 29 September 2022
Orbit: 701 x 711 km, 74.0° (Epoch: 25 November)

Event Time Altitude Azimuth Distance (km) Brightness Sun altitude
Rises 20:27:22 0° 197° (SSW) 3,136 7.9 -28.4°
Reaches altitude 10° 20:29:44 10° 194° (SSW) 2,211 7.1 -28.0°
Maximum altitude 20:34:43 66° 111° (ESE) 782 4.6 -27.2°
Drops below altitude 10° 20:39:38 10° 28° (NNE) 2,189 6.8 -26.4°
Sets 20:41:58 0° 25° (NNE) 3,101 7.6 -26.0°
